TimeCST,TemperatureF,Dew PointF,Humidity,Sea Level PressureIn,VisibilityMPH,Wind Direction,Wind SpeedMPH,Gust SpeedMPH,PrecipitationIn,Events,Conditions,WindDirDegrees,DateUTC
12:15 AM,35.6,32.0,87,30.12,10.0,Calm,Calm,-,N/A,,Partly Cloudy,0,2013-11-11 06:15:00
12:35 AM,37.4,32.0,81,30.11,10.0,South,8.1,-,N/A,,Clear,170,2013-11-11 06:35:00
1:35 AM,35.6,32.0,87,30.12,10.0,Calm,Calm,-,N/A,,Partly Cloudy,0,2013-11-11 07:35:00
1:55 AM,37.4,33.8,87,30.10,10.0,Calm,Calm,-,N/A,,Partly Cloudy,0,2013-11-11 07:55:00
2:15 AM,35.6,32.0,87,30.11,10.0,Calm,Calm,-,N/A,,Clear,0,2013-11-11 08:15:00
2:35 AM,35.6,32.0,87,30.12,10.0,North,4.6,-,N/A,,Clear,350,2013-11-11 08:35:00
2:55 AM,35.6,33.8,93,30.14,10.0,North,5.8,-,N/A,,Clear,10,2013-11-11 08:55:00
3:15 AM,39.2,33.8,81,30.15,10.0,NNE,13.8,20.7,N/A,,Clear,30,2013-11-11 09:15:00
3:35 AM,39.2,32.0,75,30.15,10.0,NNE,16.1,24.2,N/A,,Clear,30,2013-11-11 09:35:00
3:55 AM,35.6,30.2,81,30.18,10.0,NNE,20.7,31.1,N/A,,Mostly Cloudy,20,2013-11-11 09:55:00
4:15 AM,33.8,28.4,81,30.19,10.0,NNE,18.4,25.3,N/A,,Overcast,20,2013-11-11 10:15:00
4:35 AM,32.0,28.4,87,30.20,10.0,NNE,15.0,31.1,N/A,,Partly Cloudy,30,2013-11-11 10:35:00
4:55 AM,32.0,28.4,87,30.21,10.0,North,18.4,-,N/A,,Scattered Clouds,10,2013-11-11 10:55:00
5:15 AM,30.2,24.8,80,30.23,10.0,North,24.2,29.9,N/A,,Mostly Cloudy,10,2013-11-11 11:15:00
5:35 AM,30.2,23.0,75,30.24,10.0,NNE,19.6,27.6,N/A,,Mostly Cloudy,20,2013-11-11 11:35:00
5:55 AM,28.4,21.2,74,30.27,10.0,NNE,17.3,31.1,N/A,,Partly Cloudy,20,2013-11-11 11:55:00
6:15 AM,26.6,19.4,74,30.29,10.0,NNE,24.2,35.7,N/A,,Clear,20,2013-11-11 12:15:00
6:35 AM,26.6,19.4,74,30.30,10.0,NNE,18.4,28.8,N/A,,Clear,20,2013-11-11 12:35:00
6:55 AM,26.6,19.4,74,30.32,10.0,North,16.1,27.6,N/A,,Mostly Cloudy,10,2013-11-11 12:55:00
7:15 AM,24.8,17.6,74,30.35,10.0,North,19.6,32.2,N/A,,Scattered Clouds,10,2013-11-11 13:15:00
7:35 AM,24.8,17.6,74,30.36,10.0,North,19.6,28.8,N/A,,Clear,10,2013-11-11 13:35:00
7:55 AM,24.8,17.6,74,30.37,10.0,North,18.4,29.9,N/A,,Scattered Clouds,10,2013-11-11 13:55:00
8:15 AM,24.8,17.6,74,30.39,10.0,NNE,17.3,27.6,N/A,,Mostly Cloudy,20,2013-11-11 14:15:00
8:35 AM,24.8,15.8,69,30.41,10.0,North,17.3,29.9,N/A,,Overcast,10,2013-11-11 14:35:00
8:55 AM,23.0,17.6,80,30.41,6.0,NNE,16.1,26.5,N/A,Rain,Freezing Rain,20,2013-11-11 14:55:00
9:15 AM,21.2,19.4,93,30.44,-9999.0,North,16.1,23.0,N/A,Snow,Light Snow,10,2013-11-11 15:15:00
9:35 AM,21.2,17.6,86,30.45,8.0,North,13.8,-,N/A,Snow,Light Snow,350,2013-11-11 15:35:00
9:55 AM,23.0,17.6,80,30.47,10.0,North,13.8,24.2,N/A,,Overcast,360,2013-11-11 15:55:00
10:15 AM,23.0,14.0,68,30.48,10.0,North,15.0,23.0,N/A,,Overcast,360,2013-11-11 16:15:00
10:35 AM,23.0,14.0,68,30.48,10.0,North,16.1,23.0,N/A,,Overcast,10,2013-11-11 16:35:00
10:55 AM,23.0,15.8,74,30.49,8.0,North,15.0,20.7,N/A,Rain,Freezing Rain,350,2013-11-11 16:55:00
11:15 AM,23.0,15.8,74,30.50,10.0,North,13.8,23.0,N/A,,Scattered Clouds,350,2013-11-11 17:15:00
11:35 AM,23.0,14.0,68,30.50,10.0,North,16.1,23.0,N/A,,Mostly Cloudy,360,2013-11-11 17:35:00
11:55 AM,23.0,12.2,63,30.50,10.0,North,17.3,-,N/A,,Partly Cloudy,10,2013-11-11 17:55:00
12:15 PM,23.0,14.0,68,30.51,10.0,NNW,16.1,21.9,N/A,,Clear,340,2013-11-11 18:15:00
12:35 PM,23.0,12.2,63,30.51,10.0,NNW,18.4,-,N/A,,Clear,340,2013-11-11 18:35:00
12:55 PM,23.0,14.0,68,30.52,10.0,NNW,16.1,23.0,N/A,,Clear,340,2013-11-11 18:55:00
1:15 PM,24.8,12.2,59,30.53,10.0,North,19.6,-,N/A,,Clear,360,2013-11-11 19:15:00
1:35 PM,23.0,12.2,63,30.53,10.0,North,18.4,25.3,N/A,,Clear,360,2013-11-11 19:35:00
1:55 PM,23.0,12.2,63,30.53,10.0,North,15.0,21.9,N/A,,Clear,360,2013-11-11 19:55:00
2:15 PM,24.8,12.2,59,30.54,10.0,North,16.1,25.3,N/A,,Clear,350,2013-11-11 20:15:00
2:35 PM,23.0,12.2,63,30.55,10.0,North,16.1,23.0,N/A,,Clear,360,2013-11-11 20:35:00
2:55 PM,23.0,12.2,63,30.55,10.0,North,17.3,-,N/A,,Clear,360,2013-11-11 20:55:00
3:15 PM,23.0,12.2,63,30.57,10.0,NNW,13.8,24.2,N/A,,Clear,340,2013-11-11 21:15:00
3:35 PM,23.0,12.2,63,30.57,10.0,North,16.1,24.2,N/A,,Clear,350,2013-11-11 21:35:00
3:55 PM,23.0,14.0,68,30.58,10.0,North,17.3,23.0,N/A,,Clear,350,2013-11-11 21:55:00
4:15 PM,24.8,12.2,59,30.58,10.0,North,16.1,-,N/A,,Clear,360,2013-11-11 22:15:00
4:35 PM,23.0,10.4,59,30.59,10.0,North,16.1,23.0,N/A,,Clear,350,2013-11-11 22:35:00
4:55 PM,23.0,12.2,63,30.60,10.0,North,13.8,19.6,N/A,,Clear,350,2013-11-11 22:55:00
5:15 PM,23.0,12.2,63,30.62,10.0,North,13.8,20.7,N/A,,Partly Cloudy,350,2013-11-11 23:15:00
5:35 PM,21.2,12.2,68,30.63,10.0,North,15.0,-,N/A,,Clear,360,2013-11-11 23:35:00
5:55 PM,21.2,12.2,68,30.64,10.0,North,11.5,17.3,N/A,,Clear,350,2013-11-11 23:55:00
6:15 PM,19.4,12.2,74,30.65,10.0,NNW,9.2,17.3,N/A,,Clear,340,2013-11-12 00:15:00
6:35 PM,19.4,10.4,68,30.67,10.0,North,6.9,-,N/A,,Clear,350,2013-11-12 00:35:00
6:55 PM,17.6,10.4,73,30.67,10.0,North,5.8,-,N/A,,Clear,350,2013-11-12 00:55:00
7:15 PM,17.6,10.4,73,30.68,10.0,North,5.8,-,N/A,,Clear,350,2013-11-12 01:15:00
7:35 PM,17.6,10.4,73,30.69,10.0,NNW,6.9,-,N/A,,Clear,340,2013-11-12 01:35:00
7:55 PM,15.8,10.4,79,30.69,10.0,NNW,6.9,-,N/A,,Clear,340,2013-11-12 01:55:00
8:15 PM,15.8,10.4,79,30.70,10.0,NNW,6.9,-,N/A,,Clear,340,2013-11-12 02:15:00
8:35 PM,15.8,10.4,79,30.71,10.0,North,5.8,-,N/A,,Clear,350,2013-11-12 02:35:00
8:55 PM,14.0,8.6,79,30.73,10.0,NNW,6.9,-,N/A,,Clear,340,2013-11-12 02:55:00
9:15 PM,14.0,8.6,79,30.74,10.0,NNW,5.8,-,N/A,,Clear,340,2013-11-12 03:15:00
9:35 PM,14.0,8.6,79,30.75,10.0,North,6.9,-,N/A,,Clear,350,2013-11-12 03:35:00
9:55 PM,14.0,8.6,79,30.76,10.0,NNW,6.9,-,N/A,,Clear,340,2013-11-12 03:55:00
10:15 PM,14.0,8.6,79,30.76,10.0,NNW,5.8,-,N/A,,Clear,340,2013-11-12 04:15:00
10:35 PM,14.0,8.6,79,30.77,10.0,NNW,4.6,-,N/A,,Clear,340,2013-11-12 04:35:00
10:55 PM,12.2,6.8,79,30.77,10.0,NNW,5.8,-,N/A,,Clear,340,2013-11-12 04:55:00
11:15 PM,12.2,6.8,79,30.78,10.0,NNW,8.1,-,N/A,,Clear,340,2013-11-12 05:15:00
11:35 PM,12.2,6.8,79,30.78,10.0,NNW,5.8,-,N/A,,Clear,340,2013-11-12 05:35:00
11:55 PM,10.4,6.8,85,30.79,10.0,NNW,5.8,-,N/A,,Clear,340,2013-11-12 05:55:00